Regional Weather Roundup
Issued by NWS Upton, NY

Current Version | Previous Version | Graphics & Text | Print | Product List | Glossary Off
Versions: 1 2 3 4 5 6 7 8 9 10 11 12 13 14 15 16 17 18 19 20 21 22 23 24 25 26 27 28 29 30 31 32 33 34 35 36 37 38 39 40 41 42 43 44 45 46 47 48 49 50

000
ASUS41 KOKX 220709
RWROKX

REGIONAL WEATHER ROUNDUP
NATIONAL WEATHER SERVICE NEW YORK NY
300 AM EDT SAT JUL 22 2017

NOTE: "FAIR" INDICATES FEW OR NO CLOUDS BELOW 12,000 FEET WITH NO
SIGNIFICANT WEATHER AND/OR OBSTRUCTIONS TO VISIBILITY.

NYZ071-072-176-178-NJZ106-104-220800-
NEW YORK CITY METRO AREA

CITY           SKY/WX    TMP DP  RH WIND       PRES   REMARKS
Central Park   MOCLDY    82  70  66 VRB5      29.90S
Bronx Bot Gard   N/A     81  68  65 W2        29.87F
LaGuardia APRT MOCLDY    84  72  67 W7        29.85S
Kennedy INTL   MOCLDY    82  74  76 W7        29.87S
Breezy Point     N/A     77 N/A N/A NW6         N/A
Newark/Liberty MOCLDY    82  70  66 NW7       29.86S
Teterboro      MOCLDY    82  71  69 W6        29.86S
$$

NYZ177-179-078>081-220800-
LONG ISLAND NEW YORK

CITY           SKY/WX    TMP DP  RH WIND       PRES   REMARKS
Jones Beach      N/A     77 N/A N/A W3          N/A
Matinecock PT    N/A     77 N/A N/A SW6         N/A
Farmingdale    MOCLDY    80  72  76 W5        29.86S
MacArthur/ISP  CLOUDY    79  73  82 W5        29.85S
Shirley        MOCLDY    79  74  84 W3        29.85F
Mt Sinai Harb    N/A    N/A N/A N/A NW3         N/A
Westhampton    MOCLDY    76  72  87 CALM      29.86F
East Hampton   MOCLDY    77  71  81 CALM      29.85R
Montauk          N/A     76  73  91 CALM      29.87R
$$

NYZ052-065-067-220800-
HUDSON VALLEY

CITY           SKY/WX    TMP DP  RH WIND       PRES   REMARKS
White Plains   PTCLDY    77  70  78 NW10      29.88R
Larchmont Harb   N/A     81 N/A N/A W3          N/A
Croton O-T Hud   N/A     77 N/A N/A N3G9        N/A
Newburgh       CLOUDY    73  70  88 NW8       29.92S
Montgomery     CLOUDY    69  67  93 SW5       29.90S
Poughkeepsie   PTCLDY    71  68  90 CALM      29.87F
Albany         CLOUDY    70  59  68 SE3       29.89F
$$

NJZ001-105-106-008-010-013-015-019>022-104-220800-
NEW JERSEY

CITY           SKY/WX    TMP DP  RH WIND       PRES   REMARKS
Newark/Liberty MOCLDY    82  70  66 NW7       29.86S
Teterboro      MOCLDY    82  71  69 W6        29.86S
Caldwell       CLOUDY    77  71  82 CALM      29.89S
Somerville     PTCLDY    73  72  96 CALM      29.86S
Linden         PTSUNNY   80  70  71 NW5       29.87S
Perth Amboy      N/A     79 N/A N/A W7          N/A
Sussex         MOCLDY    71  70  96 CALM      29.91S FOG
Andover          N/A     72  70  93 CALM      29.92S
Trenton        PTCLDY    79  72  79 CALM      29.87F
Millville      CLOUDY    78  78 100 W5        29.87S
Atlantic City  MOCLDY    77  74  90 CALM      29.87F
Wrightstown    CLOUDY    75  71  87 CALM      29.85F
Toms River     CLOUDY    75  72  90 CALM      29.87F FOG
Belmar         CLOUDY    78  71  79 SW3       29.88F
$$

PAZ047>061-062-071-220800-
EASTERN PENNSYLVANIA

CITY           SKY/WX    TMP DP  RH WIND       PRES   REMARKS
Philadelphia   MOCLDY    82  74  76 SW3       29.87F
Allentown      CLEAR     75  70  84 CALM      29.90S
Scranton       PTCLDY    71  70  96 E5        29.94F
$$

CTZ002-004>006-009-010-012-RIZ004-006-007-MAZ004-011-015-220800-
SOUTHERN NEW ENGLAND
 IN CT

CITY           SKY/WX    TMP DP  RH WIND       PRES   REMARKS
Bradley INTL   MOCLDY    71  61  70 NW10      29.87S
Hartford       PTCLDY    77  62  59 N5        29.86S
Danbury        CLOUDY    71  69  93 SW3       29.91R
Wtrbury/Oxford CLEAR     70  63  78 CALM      29.89F
Bridgeport     PTCLDY    79  69  71 CALM      29.86R
Meriden        MOCLDY    72  69  90 CALM      29.87S
New Haven      CLOUDY    75  69  81 N6        29.86S
Chester        FAIR      75  68  78 NW5       29.88S
Groton         MOCLDY    75  69  81 N5        29.85S
Wilimantic     CLEAR     72  69  90 CALM      29.87S

 IN RI

CITY           SKY/WX    TMP DP  RH WIND       PRES   REMARKS
Providence     MOCLDY    74  68  81 W6        29.86R
Block Island   RAIN      73  71  93 SW7       29.85F
Westerly       MOCLDY    74  70  87 CALM      29.86S
 IN MA

CITY           SKY/WX    TMP DP  RH WIND       PRES   REMARKS
Boston         CLOUDY    76  58  53 W12       29.83S
Worcester      CLOUDY    70  57  63 W12       29.89S
Westfield      PTCLDY    69  62  78 CALM      29.87F
Provincetown   PTCLDY    71  65  81 W10       29.82S
Nantucket      PTCLDY    72  71  97 W10       29.84S
$$

ANZ330-335-338-340-345-350-353-355-220800-
COASTAL MARINE OBSERVATIONS


STATION/POSITION TIME  SKY/WX   TEMP    WIND        PRES    VSBY  WAVE
                                AIR SEA DIR/SP/G                  HT/PER
                 (UTC)          (F)     (DEG/KT/KT) (MB)    (MI)  (FT/S)
NY HARB ENTRANCE 0550            78 76  230/  8/ 10 1011.0          2/ 5
20 S FIRE ISLAND 0650            78 76  250/  8/ 10 1010.6          3/ 6
GREAT SOUTH BAY  0630            81 82  250/ 10/ 12   N/A
23 SSW MONTAUK P 0550            77 76              1011.2          3/ 7
15 E BARNEGAT LI 0630               78                N/A           2/11
HUDSON CANYON    0550            80 80  240/ 10/ 10 1011.3          3/ 5
KINGS POINT      0630            81 74  290/  6/  7 1011.0
EXECUTION ROCKS  0645            79     290/  6/  6   N/A
CENTRAL LI SOUND 0630            76     310/  6/  8   N/A           1
EASTERN LI SOUND NOT AVBL
ROBBINS REEF     0624                   300/ 12/ 14 1011.9
$$


>>>>>>>>>>>>>>>>>>>>>>>>>>>> KEY <<<<<<<<<<<<<<<<<<<<<<<<<<<
>                                                          <
>     SKY/WX - Sky Condition/Present Weather               <
>     TMP    - Temperature in Fahrenheit                   <
>     DP     - Dew Point in Fahrenheit                     <
>     RH     - Relative Humidity in Percent                <
>     WIND   - Direction (from) and Speed in MPH           <
>     PRES   - Mean Sea Level Pressure (inches of Hg)      <
>     WCI    - Wind Chill Index                            <
>     VSB    - VISIBILITY IN MILES                         <
>     HX     - HEAT INDEX                                  <
>     TC     - TEMPERATURE IN CELSIUS                      <
>     VRB    - VARIABLE WIND DIRECTION                     <
>                                                          <
>>>>>>>>>>>>>>>>>>>>>>>>>>>> KEY <<<<<<<<<<<<<<<<<<<<<<<<<<<



USA.gov is the U.S. government's official web portal to all federal, state and local government web resources and services.